Location: Unspecified
(0.0000°N, 0.0000°E)
Time: 15:43:47
(UTC+02:00)

ATLAS V CENTAUR R/B - Visible Passes

Search period start: 16 April 2014 00:00
Search period end: 26 April 2014 00:00
Orbit: 232 x 31019 km, 18.2° (Epoch: 14 April)

Date Brightness Start Highest point End Pass type
(mag) Time Alt. Az. Time Alt. Az. Time Alt. Az.
16 Apr 7.7 00:56:34 10° WSW 00:57:28 11° WSW 00:57:28 11° WSW visible
17 Apr 6.1 13:54:50 10° WNW 21:56:11 70° SSW 22:02:51 40° SE visible
18 Apr 5.8 07:27:34 10° WSW 07:34:01 79° SSE 15:30:19 10° E visible
20 Apr 6.1 14:03:28 10° WNW 22:02:49 64° SSW 22:08:39 41° SE visible
23 Apr 6.1 14:08:07 10° WNW 22:05:33 60° SSW 22:10:58 40° SSE visible
